Weather History for KMFR - October, 2013

Change the Weather History Date:

Thursday, October 3, 2013

  Actual Average Record
Temperature  
Mean Temperature 53 °F 61 °F  
Max Temperature 63 °F 77 °F 96 °F (1979)
Min Temperature 42 °F 45 °F 31 °F (1919)
Degree Days  
Heating Degree Days 12 5  
Month to date heating degree days 39 14  
Since 1 July heating degree days 123 83  
Cooling Degree Days 0 1  
Month to date cooling degree days 0 3  
Year to date cooling degree days 1057 822  
Growing Degree Days 2 (Base 50)    
Moisture  
Dew Point 38 °F    
Average Humidity 63    
Maximum Humidity 89    
Minimum Humidity 36    
Precipitation  
Precipitation 0.00 in 0.02 in 0.67 in (1950)
Month to date precipitation 0.01 0.06  
Year to date precipitation 7.32 10.77  
Snow  
Snow 0.00 in 0.00 in - ()
Month to date snowfall 0.0 0.0  
Since 1 July snowfall 0.0 0.0  
Snow Depth -    
Sea Level Pressure  
Sea Level Pressure 30.30 in    
Wind  
Wind Speed 1 mph (WSW)    
Max Wind Speed 7 mph    
Max Gust Speed 12 mph    
Visibility 10 miles    
Events      
T = Trace of Precipitation, MM = Missing Value Source: NWS Daily Summary

Daily Weather History Graph

Daily Weather History Graph

Search for Another Location

Airport or City:

Trip Planner

Search our weather history database for the weather conditions in past years. The results will help you decide how hot, cold, wet, or windy it might be!

Date:

Astronomy

Oct. 03, 2013 Rise Set
Actual Time 7:11 AM PDT 6:48 PM PDT
Civil Twilight 6:43 AM PDT 7:16 PM PDT
Nautical Twilight 6:10 AM PDT 7:49 PM PDT
Astronomical Twilight 5:37 AM PDT 8:22 PM PDT
Moon 5:49 AM PDT (10/3) 6:00 PM PDT (10/3)
Length of Visible Light 12h 33m
Length of Day
11h 37m
Waning Crescent, 2% of the Moon is Illuminated
Oct 3
Waning Crescent
Oct 4
New
Oct 11
First Quarter
Oct 18
Full
Oct 26
Last Quarter

Hourly Weather History & Observations

Time (PDT) Temp. Windchill Dew Point Humidity Pressure Visibility Wind Dir Wind Speed Gust Speed Precip Events Conditions
12:53 AM 48.9 °F - 41.0 °F 74% 30.20 in 10.0 mi NW 6.9 mph - 0.00 in   Overcast
1:53 AM 46.9 °F - 39.9 °F 77% 30.22 in 10.0 mi West 3.5 mph - N/A   Scattered Clouds
2:53 AM 46.0 °F - 39.9 °F 79% 30.23 in 10.0 mi Calm Calm - N/A   Mostly Cloudy
3:53 AM 46.0 °F - 39.9 °F 79% 30.24 in 10.0 mi Calm Calm - N/A   Overcast
4:53 AM 46.0 °F - 41.0 °F 83% 30.25 in 10.0 mi Calm Calm - N/A   Overcast
5:53 AM 46.9 °F - 41.0 °F 80% 30.26 in 10.0 mi Calm Calm - N/A   Overcast
6:53 AM 45.0 °F 43.5 °F 39.9 °F 82% 30.28 in 10.0 mi North 3.5 mph - N/A   Clear
7:53 AM 42.1 °F - 39.0 °F 89% 30.30 in 10.0 mi Calm Calm - N/A   Clear
8:53 AM 46.0 °F - 41.0 °F 83% 30.32 in 10.0 mi Calm Calm - N/A   Clear
9:53 AM 50.0 °F - 41.0 °F 71% 30.34 in 10.0 mi Calm Calm - N/A   Scattered Clouds
10:53 AM 52.0 °F - 37.0 °F 57% 30.34 in 10.0 mi Calm Calm - N/A   Scattered Clouds
11:53 AM 55.0 °F - 36.0 °F 49% 30.34 in 10.0 mi Variable 3.5 mph - N/A   Scattered Clouds
12:53 PM 57.0 °F - 36.0 °F 45% 30.33 in 10.0 mi Variable 4.6 mph - N/A   Scattered Clouds
1:53 PM 55.9 °F - 34.0 °F 44% 30.31 in 10.0 mi Calm Calm - N/A   Scattered Clouds
2:53 PM 59.0 °F - 34.0 °F 39% 30.30 in 10.0 mi Calm Calm - N/A   Scattered Clouds
3:53 PM 62.1 °F - 35.1 °F 37% 30.30 in 10.0 mi Calm Calm - N/A   Partly Cloudy
4:53 PM 61.0 °F - 36.0 °F 39% 30.29 in 10.0 mi Calm Calm - N/A   Partly Cloudy
5:53 PM 61.0 °F - 36.0 °F 39% 30.29 in 10.0 mi WSW 3.5 mph - N/A   Clear
6:53 PM 60.1 °F - 36.0 °F 41% 30.29 in 10.0 mi Calm Calm - N/A   Clear
7:53 PM 55.0 °F - 39.0 °F 55% 30.32 in 10.0 mi Calm Calm - N/A   Clear
9:53 PM 50.0 °F - 39.9 °F 68% 30.34 in 10.0 mi South 3.5 mph - N/A   Clear
10:53 PM 48.9 °F - 39.0 °F 69% 30.35 in 10.0 mi South 4.6 mph - N/A   Clear
11:53 PM 44.1 °F - 39.0 °F 82% 30.37 in 10.0 mi Calm Calm - N/A   Clear